This is the latest recevied weather packets stored in our database for station/object W0AVQ. If no packets are shown the sender has not sent any weather packets the latest 10 day(s).
| Time | Temp. | Humidity | Pressure | Rain* | Wind** | Luminosity | Snow |
|---|---|---|---|---|---|---|---|
| 1777822036 | 15.56° C | 58% | 1022.5 hPa | 0 mm | - | 117 W/m² | - |
| 1777821734 | 15.56° C | 58% | 1022.5 hPa | 0 mm | - | 120 W/m² | - |
| 1777821430 | 15.56° C | 59% | 1022.7 hPa | 0 mm | - | 109 W/m² | - |
| 1777821127 | 15.56° C | 60% | 1022.6 hPa | 0 mm | - | 101 W/m² | - |
| 1777820824 | 15° C | 61% | 1022.8 hPa | 0 mm | - | 101 W/m² | - |
| 1777820520 | 15° C | 61% | 1022.7 hPa | 0 mm | - | 92 W/m² | - |
| 1777820217 | 15° C | 63% | 1022.5 hPa | 0 mm | - | 92 W/m² | - |
| 1777819915 | 15° C | 64% | 1022.6 hPa | 0 mm | - | 86 W/m² | - |
| 1777819612 | 14.44° C | 65% | 1022.6 hPa | 0 mm | - | 83 W/m² | - |
| 1777819310 | 15° C | 65% | 1022.7 hPa | 0 mm | - | 80 W/m² | - |
| 1777819006 | 14.44° C | 67% | 1022.6 hPa | 0 mm | - | 78 W/m² | - |
| 1777818703 | 13.89° C | 69% | 1022.7 hPa | 0 mm | - | 77 W/m² | - |
| 1777818400 | 13.33° C | 69% | 1022.8 hPa | 0 mm | - | 75 W/m² | - |
| 1777818097 | 13.33° C | 68% | 1022.6 hPa | 0 mm | - | 72 W/m² | - |
| 1777817793 | 13.33° C | 69% | 1022.8 hPa | 0 mm | - | 70 W/m² | - |
| 1777817491 | 13.33° C | 68% | 1022.9 hPa | 0 mm | - | 69 W/m² | - |
| 1777817186 | 13.33° C | 72% | 1023 hPa | 0 mm | - | 67 W/m² | - |
| 1777816885 | 12.78° C | 75% | 1022.6 hPa | 0 mm | - | 65 W/m² | - |
| 1777816581 | 12.78° C | 74% | 1022.6 hPa | 0 mm | - | 64 W/m² | - |
| 1777816278 | 12.78° C | 75% | 1022.6 hPa | 0 mm | - | 62 W/m² | - |
| 1777815976 | 12.78° C | 76% | 1022.8 hPa | 0 mm | - | 62 W/m² | - |
| 1777815673 | 12.22° C | 78% | 1022.9 hPa | 0 mm | - | 60 W/m² | - |
| 1777815370 | 12.22° C | 77% | 1022.9 hPa | 0 mm | - | 59 W/m² | - |
| 1777815067 | 12.22° C | 79% | 1022.5 hPa | 0 mm | - | 57 W/m² | - |
| 1777814763 | 11.67° C | 81% | 1022.7 hPa | 0 mm | - | 56 W/m² | - |
* Rain latest hour (hover to see other rain measurements)
** Current wind speed in m/s (hover to see current wind gust speed)